Location: Saint-Maurice-d�Ard�che
(44.5216°N, 4.4002°E)
Time: 14:29:45
(UTC+00:00)

ATLAS 2AS CENTAUR R/B - Pass Details

Date: 30 March 2020
Orbit: 933 x 1279 km, 63.7° (Epoch: 25 May)

Event Time Altitude Azimuth Distance (km) Brightness Sun altitude
Rises 20:01:15 0° 322° (NW) 4,210 7.0 -20.0°
Reaches altitude 10° 20:04:24 10° 330° (NNW) 3,207 6.0 -20.5°
Maximum altitude 20:11:30 38° 37° (NE) 1,721 3.7 -21.6°
Enters shadow 20:14:22 28° 79° (E) 2,002 3.7 -22.1°
